FW0743 Weather Reports


time (UTC)temp
F
wind
direction
speed
knots
gust
knots
rain 1hr
in
rain 24hr
in
rain mn
in
humidity
%
barometer
mb
20260902141535 64 261 3.5 9.6 0.07 0.08 0.07 98 1017.9
20260902140030 64 171 2.6 5.2 0.04 0.05 0.04 97 1017.8
20260902134512 64 173 3.5 8.7 0.04 0.05 0.04 97 1017.3
20260902133020 65 153 4.3 7.8 0.03 0.04 0.03 97 1017.2
20260902131527 65 182 1.7 6.1 0.00 0.01 0.00 96 1018.0
20260902130033 65 154 3.5 6.1 0.00 0.01 0.00 96 1017.9
20260902124531 65 162 0.9 4.3 0.00 0.01 0.00 97 1017.8
20260902123026 65 111 2.6 7.0 0.00 0.01 0.00 97 1018.0
20260902121523 65 128 2.6 7.8 0.00 0.01 0.00 97 1017.8
20260902120028 65 166 2.6 8.7 0.00 0.01 0.00 97 1017.0
20260902114534 65 138 2.6 10.4 0.00 0.01 0.00 98 1017.1
20260902113030 65 153 4.3 8.7 0.00 0.01 0.00 98 1017.1
20260902111534 65 141 5.2 11.3 0.00 0.01 0.00 98 1016.3
20260902110005 65 165 5.2 8.7 0.00 0.01 0.00 98 1016.4
20260902104537 64 146 4.3 10.4 0.00 0.01 0.00 98 1016.3
20260902103017 65 178 4.3 8.7 0.00 0.01 0.00 98 1016.7
20260902101518 64 165 3.5 8.7 0.00 0.01 0.00 98 1017.1
20260902100003 64 180 2.6 7.8 0.00 0.01 0.00 98 1017.2
20260902094503 64 137 4.3 8.7 0.00 0.01 0.00 98 1017.1
20260902093024 64 148 3.5 7.8 0.00 0.01 0.00 98 1017.3
20260902091513 64 149 3.5 7.8 0.00 0.02 0.00 98 1017.2
20260902090020 64 152 3.5 8.7 0.00 0.03 0.00 98 1017.2
20260902084504 64 107 2.6 7.0 0.00 0.03 0.00 98 1017.4
20260902083005 64 134 3.5 7.8 0.00 0.03 0.00 98 1017.5
20260902081510 64 132 2.6 7.0 0.00 0.03 0.00 97 1017.3
20260902080024 64 139 2.6 7.8 0.00 0.03 0.00 97 1017.4
20260902074524 64 157 2.6 7.8 0.00 0.04 0.00 97 1017.4
20260902073016 64 161 3.5 8.7 0.00 0.04 0.00 97 1017.3
20260902071512 64 149 2.6 7.8 0.00 0.05 0.00 98 1017.1
20260902070027 64 160 4.3 8.7 0.00 0.11 0.00 97 1017.2
20260902064524 63 111 3.5 7.0 0.00 0.13 0.00 98 1017.3
20260902063027 63 178 2.6 7.0 0.00 0.13 0.00 97 1017.3
20260902061506 63 142 2.6 7.0 0.00 0.13 0.00 97 1017.3
20260902060010 63 167 0.9 4.3 0.00 0.13 0.00 97 1017.4
20260902054522 63 177 2.6 5.2 0.00 0.13 0.00 97 1017.3
20260902053025 63 194 1.7 6.1 0.00 0.13 0.00 97 1017.2
20260902051528 63 164 1.7 4.3 0.00 0.13 0.00 97 1017.3
20260902050010 63 171 0.9 3.5 0.00 0.13 0.00 96 1017.4
20260902044516 63 171 0.0 3.5 0.00 0.13 0.00 96 1017.3
20260902043029 64 150 0.9 5.2 0.00 0.13 0.00 96 1017.0
20260902041527 64 155 1.7 6.1 0.00 0.13 0.00 96 1016.9
20260902040034 64 186 1.7 4.3 0.00 0.13 0.00 96 1016.7
20260902034512 64 160 1.7 4.3 0.00 0.13 0.13 96 1016.8
20260902033029 64 167 0.9 3.5 0.00 0.13 0.13 96 1016.9
20260902031535 64 182 0.0 4.3 0.00 0.13 0.13 95 1016.7
20260902030027 65 164 2.6 7.0 0.00 0.13 0.13 95 1016.7
20260902024509 65 160 2.6 6.1 0.00 0.13 0.13 94 1016.8
20260902023033 66 158 2.6 5.2 0.00 0.13 0.13 94 1016.9
20260902021531 66 158 0.9 4.3 0.00 0.13 0.13 94 1016.9
20260902020029 67 148 1.7 6.1 0.00 0.13 0.13 93 1016.9
20260902014530 67 166 2.6 5.2 0.00 0.13 0.13 93 1017.0
20260902013012 67 147 0.9 7.0 0.00 0.13 0.13 92 1016.8
20260902011516 68 126 2.6 5.2 0.00 0.13 0.13 92 1016.5
20260902010029 68 174 0.9 4.3 0.00 0.13 0.13 92 1016.5
20260902004530 68 154 0.9 4.3 0.00 0.13 0.13 92 1016.2
20260902003034 68 182 0.0 3.5 0.00 0.13 0.13 92 1015.9
20260902001512 69 167 0.9 2.6 0.00 0.13 0.13 92 1015.7
20260902000030 69 149 0.0 5.2 0.00 0.13 0.13 91 1015.5
20260901234529 70 165 1.7 4.3 0.00 0.13 0.13 90 1015.6
20260901233028 70 150 0.9 4.3 0.00 0.13 0.13 89 1015.7
20260901231531 72 182 1.7 2.6 0.00 0.13 0.13 89 1015.6
20260901230027 72 182 0.0 1.7 0.00 0.13 0.13 88 1015.6
20260901224528 73 131 0.0 3.5 0.00 0.13 0.13 87 1015.7
20260901223031 73 134 0.0 5.2 0.00 0.13 0.13 87 1015.7
20260901221534 73 178 2.6 4.3 0.00 0.13 0.13 87 1015.6
20260901220054 73 112 0.0 5.2 0.00 0.13 0.13 88 1015.7
20260901214523 73 136 2.6 4.3 0.00 0.13 0.13 88 1015.5
20260901213100 73 178 0.9 7.0 0.00 0.13 0.13 88 1015.5
20260901211531 73 205 2.6 7.0 0.00 0.13 0.13 87 1015.4
20260901210031 73 178 2.6 6.1 0.00 0.13 0.13 87 1015.3
20260901204526 73 169 1.7 6.1 0.00 0.13 0.13 87 1015.4
20260901203047 74 170 2.6 5.2 0.00 0.13 0.13 86 1015.5
20260901201528 74 196 0.9 2.6 0.00 0.13 0.13 86 1015.4
20260901200037 74 208 0.9 6.1 0.00 0.13 0.13 86 1015.4
20260901194540 74 150 0.9 3.5 0.00 0.13 0.13 86 1015.2
20260901193021 74 188 0.9 2.6 0.00 0.13 0.13 86 1015.1
20260901191527 73 188 0.9 1.7 0.00 0.13 0.13 88 1015.2
20260901190032 72 188 0.0 1.7 0.00 0.13 0.13 89 1015.2
20260901184534 73 188 0.0 3.5 0.00 0.13 0.13 88 1015.2
20260901183041 73 144 0.9 4.3 0.00 0.13 0.13 88 1015.1
20260901181526 73 182 2.6 7.0 0.00 0.13 0.13 87 1015.0
20260901180031 73 142 0.9 4.3 0.00 0.13 0.13 88 1014.9
20260901174532 74 26 1.7 7.0 0.00 0.13 0.13 85 1014.9
20260901173049 73 169 0.0 3.5 0.00 0.13 0.13 85 1014.7
20260901171526 73 256 0.9 4.3 0.00 0.13 0.13 86 1014.7
20260901170033 73 198 0.9 3.5 0.00 0.13 0.13 86 1014.8
20260901164510 74 252 0.9 5.2 0.00 0.13 0.13 87 1014.8
20260901163015 73 144 1.7 7.0 0.00 0.14 0.13 87 1014.6
20260901161520 71 134 2.6 7.0 0.00 0.14 0.13 91 1014.7
20260901160031 70 154 2.6 7.0 0.00 0.14 0.13 92 1014.8
20260901154530 69 131 3.5 6.1 0.01 0.14 0.13 92 1014.9
20260901153012 69 146 3.5 5.2 0.01 0.14 0.13 93 1014.9
20260901151518 69 172 4.3 7.8 0.01 0.14 0.13 93 1014.7
20260901150024 68 172 4.3 8.7 0.01 0.14 0.13 97 1014.6
20260901144530 67 149 6.1 11.3 0.00 0.13 0.12 98 1014.6
20260901143042 66 142 4.3 8.7 0.00 0.13 0.12 98 1014.4